This demonstration page uses our WeatherBlox Daily Observations layout. Learn more.

Left ArrowRight Arrow

Hourly Observations for February 14, 2019

Temp ( °F °C ) Dew Point ( °F °C ) Humidity (%) Winds ( mph kmh ) Pressure ( in mb ) Visibility ( mi km ) Precip ( " mm )
12:53 am 00:53 Clear 35 1.7 33 0.6 93 93 Calm 30.17 1022 10 16 0.00 0.00
1:53 am 01:53 Clear 35 1.7 33 0.6 93 93 Calm 30.15 1021 10 16 0.00 0.00
2:53 am 02:53 Clear 33 0.6 32 0 96 96 Calm 30.16 1021 10 16 0.00 0.00
3:53 am 03:53 Clear 32 0 31 -0.6 96 96 Calm 30.16 1021 10 16 0.00 0.00
4:53 am 04:53 Clear 32 0 31 -0.6 96 96 Calm 30.14 1021 10 16 0.00 0.00
5:53 am 05:53 Clear 31 -0.6 30 -1.1 96 96 Calm 30.14 1021 10 16 0.00 0.00
6:53 am 06:53 Clear 31 -0.6 30 -1.1 96 96 Calm 30.15 1021 10 16 0.00 0.00
7:53 am 07:53 Sunny 32 0 31 -0.6 96 96 Calm 30.15 1021 10 16 0.00 0.00
8:53 am 08:53 Sunny 37 2.8 35 1.7 93 93 Calm 30.16 1021 10 16 0.00 0.00
9:53 am 09:53 Sunny 43 6.1 36 2.2 76 76 Calm 30.14 1021 10 16 0.00 0.00
10:53 am 10:53 Sunny 50 10 34 1.1 54 54 SW 3 6 30.11 1020 10 16 0.00 0.00
11:53 am 11:53 Sunny 57 13.9 32 0 39 39 WSW 5 7 30.10 1019 10 16 0.00 0.00
12:53 pm 12:53 Sunny 61 16.1 23 -5 23 23 S 8 13 30.06 1018 10 16 0.00 0.00
1:53 pm 13:53 Sunny 63 17.2 26 -3.3 25 25 SSW 8 13 30.02 1017 10 16 0.00 0.00
2:53 pm 14:53 Sunny 62 16.7 25 -3.9 24 24 S 6 9 30.01 1016 10 16 0.00 0.00
3:53 pm 15:53 Sunny 65 18.3 27 -2.8 24 24 SSE 13 20 29.97 1015 10 16 0.00 0.00
4:53 pm 16:53 Sunny 63 17.2 21 -6.1 20 20 S 12 19 29.97 1015 10 16 0.00 0.00
5:53 pm 17:53 Sunny 61 16.1 21 -6.1 21 21 SSW 9 15 29.98 1015 10 16 0.00 0.00
6:53 pm 18:53 Clear 59 15 24 -4.4 26 26 S 9 15 29.97 1015 10 16 0.00 0.00
7:53 pm 19:53 Clear 58 14.4 27 -2.8 31 31 S 7 11 29.96 1015 10 16 0.00 0.00
8:53 pm 20:53 Mostly Cloudy 57 13.9 29 -1.7 34 34 S 8 13 29.97 1015 10 16 0.00 0.00
9:53 pm 21:53 Mostly Cloudy 56 13.3 30 -1.1 37 37 S 10 17 29.96 1015 10 16 0.00 0.00
10:53 pm 22:53 Mostly Cloudy 55 12.8 31 -0.6 40 40 S 7 11 29.96 1015 10 16 0.00 0.00
11:53 pm 23:53 Mostly Clear 54 12.2 32 0 43 43 SSW 6 9 29.97 1015 10 16 0.00 0.00

Powered by AerisWeather